This is the latest recevied weather packets stored in our database for station/object K0QJ. If no packets are shown the sender has not sent any weather packets the latest 10 day(s).
| Time | Temp. | Humidity | Pressure | Rain* | Wind** | Luminosity | Snow |
|---|---|---|---|---|---|---|---|
| 1778120330 | 10.56° C | 51% | 1016.7 hPa | 0 mm | - | 0 W/m² | - |
| 1778120025 | 10.56° C | 52% | 1016.5 hPa | 0 mm | - | 0 W/m² | - |
| 1778119724 | 10.56° C | 52% | 1016.4 hPa | 0 mm | - | 0 W/m² | - |
| 1778119420 | 11.11° C | 51% | 1016.5 hPa | 0 mm | - | 0 W/m² | - |
| 1778119117 | 11.11° C | 51% | 1016.4 hPa | 0 mm | - | 0 W/m² | - |
| 1778118815 | 11.67° C | 49% | 1016.3 hPa | 0 mm | - | 0 W/m² | - |
| 1778118512 | 11.67° C | 48% | 1016.2 hPa | 0 mm | - | 0 W/m² | - |
| 1778118208 | 11.67° C | 46% | 1016.3 hPa | 0 mm | - | 0 W/m² | - |
| 1778117905 | 12.22° C | 47% | 1016.4 hPa | 0 mm | - | 0 W/m² | - |
| 1778117602 | 12.78° C | 43% | 1016.2 hPa | 0 mm | - | 0 W/m² | - |
| 1778117299 | 12.78° C | 41% | 1016.3 hPa | 0 mm | - | 0 W/m² | - |
| 1778116994 | 13.33° C | 41% | 1016.2 hPa | 0 mm | - | 0 W/m² | - |
| 1778116687 | 13.33° C | 40% | 1016.1 hPa | 0 mm | - | 0 W/m² | - |
| 1778116383 | 13.89° C | 40% | 1016.2 hPa | 0 mm | - | 1 W/m² | - |
| 1778116083 | 13.89° C | 38% | 1016.1 hPa | 0 mm | - | 2 W/m² | - |
| 1778115779 | 13.89° C | 40% | 1016.1 hPa | 0 mm | - | 5 W/m² | - |
| 1778115476 | 13.89° C | 37% | 1015.9 hPa | 0 mm | - | 6 W/m² | - |
| 1778115172 | 13.89° C | 37% | 1015.6 hPa | 0 mm | - | 8 W/m² | - |
| 1778114869 | 14.44° C | 37% | 1015.6 hPa | 0 mm | - | 10 W/m² | - |
| 1778114567 | 14.44° C | 36% | 1016 hPa | 0 mm | - | 12 W/m² | - |
| 1778114263 | 14.44° C | 37% | 1015.9 hPa | 0 mm | - | 13 W/m² | - |
| 1778113958 | 14.44° C | 36% | 1015.7 hPa | 0 mm | - | 15 W/m² | - |
| 1778113655 | 15° C | 36% | 1015.9 hPa | 0 mm | - | 16 W/m² | - |
| 1778113351 | 14.44° C | 35% | 1016.1 hPa | 0 mm | - | 18 W/m² | - |
| 1778113048 | 15° C | 36% | 1015.9 hPa | 0 mm | - | 19 W/m² | - |
* Rain latest hour (hover to see other rain measurements)
** Current wind speed in m/s (hover to see current wind gust speed)